Weather History for Poplar Bluff, MO

Change the Weather History Date:

Saturday, December 15, 2012

  Actual Average Record
Temperature  
Mean Temperature 54 °F -  
Max Temperature 62 °F 47 °F 73 °F (1933)
Min Temperature 46 °F 29 °F 2 °F (1943)
Degree Days  
Heating Degree Days 11    
Growing Degree Days 4 (Base 50)    
Moisture  
Dew Point 52 °F    
Average Humidity 87    
Maximum Humidity 90    
Minimum Humidity 80    
Precipitation  
Precipitation 0.15 in - - ()
Sea Level Pressure  
Sea Level Pressure 29.81 in    
Wind  
Wind Speed 12 mph (SSW)    
Max Wind Speed 24 mph    
Max Gust Speed 34 mph    
Visibility 10 miles    
Events Rain    
Averages and records for this station are not official NWS values.
T = Trace of Precipitation, MM = Missing Value Source: NWS Daily Summary

Daily Weather History Graph

Daily Weather History Graph

Search for Another Location

Airport:

Trip Planner

Search our weather history database for the weather conditions in past years. The results will help you decide how hot, cold, wet, or windy it might be!

Date:

Astronomy

Dec. 15, 2012 Rise Set
Actual Time 7:07 AM CST 4:46 PM CST
Civil Twilight 6:38 AM CST 5:15 PM CST
Nautical Twilight 6:05 AM CST 5:47 PM CST
Astronomical Twilight 5:34 AM CST 6:19 PM CST
Moon 9:02 AM CST (12/15) 7:47 PM CST (12/15)
Length of Visible Light 10h 37m
Length of Day
9h 39m
Waxing Crescent, 8% of the Moon is Illuminated
Dec 15
Waxing Crescent
Dec 19
First Quarter
Dec 28
Full
Jan 4
Last Quarter
Jan 11
New

Hourly Weather History & Observations

Time (CST) Temp. Dew Point Humidity Pressure Visibility Wind Dir Wind Speed Gust Speed Precip Events Conditions
12:53 AM 48.0 °F 42.1 °F 80% 30.00 in 10.0 mi SSE 8.1 mph - 0.01 in Rain Light Rain
1:53 AM 46.9 °F 44.1 °F 90% 29.97 in 7.0 mi SSE 8.1 mph - 0.05 in Rain Light Rain
2:53 AM 48.0 °F 45.0 °F 89% 29.97 in 9.0 mi SSE 6.9 mph - 0.01 in Rain Light Rain
3:53 AM 48.9 °F 46.0 °F 90% 29.92 in 10.0 mi SSE 11.5 mph - 0.00 in   Overcast
4:53 AM 50.0 °F 46.0 °F 86% 29.91 in 8.0 mi SSE 11.5 mph 20.7 mph 0.00 in Rain Light Rain
5:53 AM 50.0 °F 46.9 °F 89% 29.89 in 6.0 mi SSE 12.7 mph - 0.06 in Rain Light Rain
6:45 AM 50.0 °F 46.4 °F 87% 29.86 in 10.0 mi South 11.5 mph - 0.00 in Rain Light Rain
6:53 AM 51.1 °F 46.9 °F 86% 29.87 in 8.0 mi South 12.7 mph - 0.00 in Rain Light Rain
7:02 AM 51.8 °F 48.2 °F 88% 29.87 in 9.0 mi South 11.5 mph - 0.00 in   Overcast
7:53 AM 52.0 °F 48.0 °F 86% 29.87 in 10.0 mi South 15.0 mph - 0.01 in   Overcast
8:53 AM 53.1 °F 50.0 °F 89% 29.85 in 10.0 mi South 10.4 mph - N/A   Overcast
9:53 AM 54.0 °F 51.1 °F 90% 29.84 in 7.0 mi SSW 17.3 mph 23.0 mph 0.00 in Rain Light Rain
10:53 AM 55.0 °F 51.1 °F 86% 29.82 in 10.0 mi SSW 15.0 mph 23.0 mph 0.00 in   Overcast
11:53 AM 55.9 °F 53.1 °F 90% 29.78 in 10.0 mi SSW 17.3 mph 23.0 mph N/A   Overcast
12:53 PM 57.9 °F 54.0 °F 87% 29.75 in 10.0 mi SSW 24.2 mph 34.5 mph N/A   Overcast
1:53 PM 59.0 °F 55.0 °F 87% 29.74 in 10.0 mi SSW 19.6 mph 28.8 mph N/A   Overcast
2:24 PM 60.8 °F 55.4 °F 82% 29.72 in 10.0 mi SSW 24.2 mph 28.8 mph N/A   Overcast
2:53 PM 60.1 °F 55.0 °F 83% 29.73 in 10.0 mi SSW 20.7 mph 28.8 mph N/A   Overcast
3:53 PM 60.1 °F 55.0 °F 83% 29.73 in 10.0 mi SSW 16.1 mph 24.2 mph 0.01 in   Overcast
4:44 PM 59.0 °F 55.4 °F 88% 29.73 in 10.0 mi SSW 13.8 mph - N/A   Scattered Clouds
4:53 PM 60.1 °F 55.0 °F 83% 29.73 in 10.0 mi SSW 15.0 mph 24.2 mph N/A   Mostly Cloudy
5:34 PM 60.8 °F 55.4 °F 82% 29.73 in 10.0 mi SSW 13.8 mph 24.2 mph N/A   Scattered Clouds
5:53 PM 60.1 °F 55.9 °F 86% 29.73 in 10.0 mi SSW 12.7 mph - N/A   Partly Cloudy
6:12 PM 59.0 °F 55.4 °F 88% 29.74 in 10.0 mi SSW 9.2 mph - N/A   Mostly Cloudy
6:53 PM 59.0 °F 55.9 °F 90% 29.76 in 10.0 mi SSW 9.2 mph - N/A   Overcast
7:53 PM 59.0 °F 55.9 °F 90% 29.76 in 10.0 mi SSW 6.9 mph - N/A   Overcast
8:53 PM 62.1 °F 57.9 °F 86% 29.76 in 10.0 mi SSW 13.8 mph - N/A   Overcast
9:24 PM 62.6 °F 57.2 °F 82% 29.77 in 10.0 mi SW 12.7 mph - N/A   Overcast
9:53 PM 61.0 °F 57.9 °F 90% 29.77 in 10.0 mi SW 11.5 mph - N/A   Overcast
10:53 PM 62.1 °F 57.9 °F 86% 29.76 in 10.0 mi SW 13.8 mph - N/A   Overcast
11:18 PM 60.8 °F 57.2 °F 88% 29.76 in 10.0 mi SW 11.5 mph - N/A   Overcast
11:53 PM 61.0 °F 57.9 °F 90% 29.75 in 10.0 mi SW 15.0 mph 21.9 mph N/A   Mostly Cloudy